Regional Weather Roundup
Issued by NWS

Home | Current Version | Previous Version | Graphics & Text | Print | Product List | Glossary Off
Versions: 1 2 3 4 5 6 7 8 9 10 11 12 13 14 15 16 17 18 19 20 21 22 23 24 25 26 27 28 29 30 31 32 33 34 35 36 37 38 39 40 41 42 43 44 45 46 47 48 49 50

000
ASUS43 KTOP 190508
RWRKS

WEATHER ROUNDUP FOR KANSAS
NATIONAL WEATHER SERVICE GOODLAND KS
1100 PM CST WED JAN 18 2017

NOTE:  "FAIR" INDICATES FEW OR NO CLOUDS BELOW 12,000 FEET WITH NO
SIGNIFICANT WEATHER AND/OR OBSTRUCTIONS TO VISIBILITY.

KSZ001>006-013>018-027>032-041>047-190600-
NORTHWEST KANSAS

CITY           SKY/WX    TMP DP  RH WIND       PRES   REMARKS
GOODLAND       CLOUDY    36  29  75 S9        29.71F
HAYS           CLEAR     37  37 100 SE10      29.81F WCI  30
HILL CITY      CLOUDY    40  39  97 S7        29.78F
RUSSELL        CLEAR     41  38  89 S14       29.80F
$$

KSZ061>065-074>080-084>089-190600-
SOUTHWEST KANSAS

CITY           SKY/WX    TMP DP  RH WIND       PRES   REMARKS
DODGE CITY     CLOUDY    43  42  97 S18       29.80F FOG
ELKHART          N/A     36  28  73 S8          N/A
GARDEN CITY    CLOUDY    42  41  96 S14       29.75F FOG
GREAT BEND     MOCLDY    43  42  97 S18       29.83F
LIBERAL        CLEAR     43  37  81 S13       29.76F
PRATT          CLOUDY    43  41  94 S18G26    29.85F
$$

KSZ066>073-081>083-090>101-190600-
SOUTHEAST KANSAS

CITY           SKY/WX    TMP DP  RH WIND       PRES   REMARKS
CHANUTE        CLOUDY    46  43  89 S6        29.94F
COFFEYVILLE    CLOUDY    47  45  93 S6        29.95F FOG
HUTCHINSON     CLEAR     39  36  89 S8        29.88F
MEDICINE LODGE   N/A     45  42  89 SE8       29.87F
NEWTON         CLOUDY    43  38  82 S10       29.90S
PARSONS        CLOUDY    47  44  90 CALM      29.95F
WICHITA INTL   MOCLDY    44  39  82 S8        29.89F
WICHITA JABRA  CLOUDY    45  39  79 S8        29.90F
WICHITA MCCONL CLOUDY    45  39  79 S8        29.90S
WINFIELD       CLOUDY    47  40  76 SE7       29.93S
$$

KSZ007>012-019>026-033>040-048>060-102>105-190600-
NORTHEAST KANSAS

CITY           SKY/WX    TMP DP  RH WIND       PRES   REMARKS
CONCORDIA      CLOUDY    42  39  89 S12       29.85F
EMPORIA        CLOUDY    44  39  82 S12       29.91F
LAWRENCE       CLOUDY    31  31 100 NE3       29.96S FOG
MANHATTAN      CLOUDY    44  36  73 CALM      29.90F
MARYSVILLE     MOCLDY    37  34  87 S8        29.90S
OLATHE IND     CLOUDY    42  39  89 SE6       29.95F
OLATHE EXE     CLOUDY    41  40  96 SE5       29.95F
SALINA         CLEAR     41  36  82 S12       29.87F
TOPEKA BILLARD CLOUDY    40  36  86 E3        29.94F
TOPEKA FORBES  CLOUDY    40  38  93 E5        29.93F
$$



USA.gov is the U.S. government's official web portal to all federal, state and local government web resources and services.